Regional Weather Roundup
Issued by NWS Mt. Holly, NJ

Home | Current Version | Previous Version | Text Only | Print | Product List | Glossary On
Versions: 1 2 3 4 5 6 7 8 9 10 11 12 13 14 15 16 17 18 19 20 21 22 23 24 25 26 27 28
000
ASUS41 KPHI 031212
RWRPHI

REGIONAL WEATHER ROUNDUP
NATIONAL WEATHER SERVICE MOUNT HOLLY NJ
800 AM EDT TUE AUG 03 2021

NOTE:  "FAIR" INDICATES FEW OR NO CLOUDS BELOW 12,000 FEET WITH NO
SIGNIFICANT WEATHER AND/OR OBSTRUCTIONS TO VISIBILITY.

 * = STATION DOES NOT REPORT PRECIPITATION (E.G. RAIN, SNOW, ETC.)
        OR FOG.

NJZ015>026-031300-
SOUTHERN NEW JERSEY

CITY           SKY/WX    TMP DP  RH WIND       PRES   REMARKS
POMONA         CLOUDY    65  58  78 CALM      30.11S
6HR MIN TEMP:  60; 6HR MAX TEMP:  65;

WILDWOOD*      CLOUDY    67  64  90 CALM      30.11F
MILLVILLE      CLOUDY    65  60  84 CALM      30.11F
WRIGHTSTOWN    CLOUDY    63  57  80 CALM      30.12R
MOUNT HOLLY    CLOUDY    64  59  83 CALM      30.12S
TRENTON        CLOUDY    63  54  72 CALM      30.13R
6HR MIN TEMP:  59; 6HR MAX TEMP:  63;


$$
NJZ001>014-031300-
NORTHERN NEW JERSEY

CITY           SKY/WX    TMP DP  RH WIND       PRES   REMARKS
SUSSEX         PTSUNNY   55  55 100 CALM      30.15S
ANDOVER*         N/A     59  58  96 CALM      30.15S
MORRISTOWN     MOSUNNY   63  63 100 CALM      30.14S
NEWARK         CLOUDY    67  55  65 CALM      30.12S
TETERBORO      CLOUDY    64  54  69 N3        30.12S
CALDWELL       CLOUDY    63  54  72 CALM      30.14S
SOMERVILLE     CLOUDY    59  56  89 CALM      30.12S
ALLAIRE*       CLOUDY    66  58  75 N3        30.14R

$$
PAZ043-044-047-054-055-060>062-066>071-031300-
EASTERN PENNSYLVANIA

CITY           SKY/WX    TMP DP  RH WIND       PRES   REMARKS
PHILADELPHIA   CLOUDY    68  57  68 N5        30.12S
6HR MIN TEMP:  65; 6HR MAX TEMP:  68;

NORTH PHILA    CLOUDY    65  56  72 CALM      30.14S
BLUE BELL*     CLOUDY    60  58  93 CALM      30.14S
DOYLESTOWN     CLOUDY    62  54  74 CALM      30.13S
QUAKERTOWN*    SUNNY     59  59 100 CALM      30.14S
PERKASIE*      FAIR      57  57 100 CALM      30.15S
POTTSTOWN        N/A     58  54  86 CALM      30.15S
LANCASTER      CLOUDY    62  55  77 CALM      30.14S
COATESVILLE    CLOUDY    63  54  72 CALM      30.15S
WEST CHESTER   FAIR      64  54  68 CALM      30.14S
READING        CLOUDY    59  56  89 N3        30.13S
6HR MIN TEMP:  57; 6HR MAX TEMP:  60;

ALLENTOWN      CLOUDY    58  53  84 CALM      30.14S
6HR MIN TEMP:  52; 6HR MAX TEMP:  58;

QN CITY/ALNTWN FAIR      59  55  88 CALM      30.15F
MOUNT POCONO   PTSUNNY   55  53  93 CALM      30.17S
6HR MIN TEMP:  46; 6HR MAX TEMP:  55;

HAZLETON       PTSUNNY   55  52  88 CALM      30.19S
LEHIGHTON      FAIR      54  54 100 CALM      30.17S
WILKES BARRE   MOSUNNY   57  49  74 E3        30.16S

$$
DEZALL-MDZ008-012-015-019-020-031300-
DELAWARE AND EASTERN MARYLAND

CITY           SKY/WX    TMP DP  RH WIND       PRES   REMARKS
WILMINGTON     CLOUDY    65  59  81 CALM      30.12S
6HR MIN TEMP:  59; 6HR MAX TEMP:  65;

DOVER          CLOUDY    66  62  85 NW3       30.09F
CHESWOLD       SUNNY     64  63  94 CALM      30.11F
GEORGETOWN     CLOUDY    67  65  93 CALM      30.11S FOG
6HR MIN TEMP:  63; 6HR MAX TEMP:  67;

EASTON         SUNNY     68  66  94 CALM      30.13F
ABERDEEN       CLOUDY    63  61  94 CALM      30.10S
PATUXENT       CLOUDY    73  63  70 NE6       30.09S
OCEAN CITY     CLOUDY    68  66  93 N3        30.10F
WALLOPS ISLAND CLOUDY    69  65  86 N6        30.09F
CAMBRIDGE      SUNNY     68  68 100 CALM      30.10S
SALISBURY      CLOUDY    67  64  90 CALM      30.09F FOG

$$
PAZ001-021-NYZ056-072-MDZ011-DCZ001-031300-
OTHER NEARBY LOCATIONS

CITY           SKY/WX    TMP DP  RH WIND       PRES   REMARKS
HARRISBURG     PTSUNNY   63  56  78 CALM      30.13S
STATE COLLEGE  MOSUNNY   54  54 100 CALM      30.15F
WILLIAMSPORT   CLOUDY    55  53  93 CALM      30.14S FOG
BINGHAMTON     SUNNY     54  50  86 CALM      30.15S
NEW YORK CITY  CLOUDY    68  55  63 VRB3      30.15S
BALTIMORE      CLOUDY    69  59  70 CALM      30.10F
WASHINGTON DC  CLOUDY    70  63  78 NE5       30.11S

$$



USA.gov is the U.S. government's official web portal to all federal, state and local government web resources and services.